Tracking 27124 objects as of 31-Mar-2023
HD Live streaming from Space Station
objects crossing your sky now

ARIANE 44L+ DEB

Track ARIANE 44L+ DEB now!


NORAD ID: 28577
Int'l Code: 1992-021R
Perigee: 1,054.3 km
Apogee: 35,654.7 km
Inclination: 3.4 °
Period: 644.9 minutes
Semi major axis: 24725 km
RCS: 0.242 m2 (medium)
Launch date: April 15, 1992
Source: France (FR)
Launch site: FRENCH GUIANA (FRGUI)

Note: This is SATELLITE DEBRIS
Your satellite tracking list
Your tracking list is empty




NASA's NSSDC Master Catalog

Two Line Element Set (TLE):
1 28577U 92021R   23089.71589976 -.00000272  00000-0  00000-0 0  9999
2 28577   3.4191 139.2028 6996920 227.5295 271.4600  2.23298470151483
Source of the keplerian elements: AFSPC